Hourly Data Report for September 11, 2017

All times are specified in Local Standard Time (LST). Add 1 hour to adjust for Daylight Saving Time where and when it is observed.

POINT LEPREAU CS
NEW BRUNSWICK

45°04'23.040" N
66°26'57.090" W
6.00 m
8104201
71699
WPE

Download Data

Hourly Data (September 2017)
Hourly Data Report for September 11, 2017
Temp Definition
°C
Dew Point Temp Definition
°C
Rel Hum Definition
%
Wind Dir Definition
10's deg

Wind Spd Definition
km/h
Visibility Definition
km
Stn Press Definition
kPa
Hmdx Definition


Wind Chill Definition


Weather Definition


TIME
00:00 13.1 8.7 75 32 9   102.04     LegendNANA
01:00 12.7 9.5 81 29 6   101.98     LegendNANA
02:00 12.4 10.0 85 29 7   101.90     LegendNANA
03:00 12.8 9.7 81 30 9   101.83     LegendNANA
04:00 12.6 9.7 82 30 4   101.81     LegendNANA
05:00 12.2 10.3 88   0   101.79     LegendNANA
06:00 12.6 10.4 87 31 5   101.77     LegendNANA
07:00 13.5 10.5 82 33 7   101.82     LegendNANA
08:00 14.4 10.7 78 34 9   101.85     LegendNANA
09:00 16.3 11.5 73 28 7   101.80     LegendNANA
10:00 18.5 12.1 66 33 15   101.77     LegendNANA
11:00 20.0 13.2 65 35 14   101.76     LegendNANA
12:00 21.3 12.5 57 35 15   101.72     LegendNANA
13:00 22.6 12.4 52 2 13   101.64 25   LegendNANA
14:00 22.6 11.3 49 33 17   101.56 25   LegendNANA
15:00 23.1 11.9 49 33 12   101.50 25   LegendNANA
16:00 23.5 11.4 46 35 10   101.44 25   LegendNANA
17:00 17.8 12.8 72 16 8   101.42     LegendNANA
18:00 17.1 12.7 76 20 3   101.41     LegendNANA
19:00 14.4 12.5 88 33 1   101.42     LegendNANA
20:00 13.1 11.8 91 32 6   101.37     LegendNANA
21:00 13.1 11.5 90 30 8   101.39     LegendNANA
22:00 12.4 11.2 93 34 6   101.41     LegendNANA
23:00 14.1 11.4 84 3 7   101.43     LegendNANA

Notes on Data Quality.

Legend

  • E = Estimated
  • M = Missing
  • NA = Not Available
  • ‡ = Partner data that is not subject to review by the National Climate Archives
Date modified: